Weather observations for the past three days for
Williamsport - Lycoming County Airport
Imperial (Metric)
Date Time (edt) Wind (mph) Vis. (mi.) Weather Sky Cond. Temperature (ºF) Relative Humidity Wind Chill (°F) Heat Index (°F) Pressure Precipitation (in)
Air Dwpt 6 hour altimeter (in) sea level (mb) 1 hr 3 hr 6 hr
Max. Min.
14 08:54 Calm 10.00 Fair CLR 75.9 68 77% 77 30.07 1017.9
14 07:54 NW 3 10.00 Mostly Cloudy FEW070 BKN100 72 68 72 68 87% 30.08 1018.0
14 06:54 Calm 10.00 Mostly Cloudy BKN006 BKN100 71.1 66.9 87% 30.07 1017.8
14 05:54 N 5 10.00 Mostly Cloudy BKN006 69.1 66.9 93% 30.06 1017.5
14 04:54 Calm 10.00 Fair CLR 69.1 66.9 93% 30.07 1017.9
14 03:54 Calm 10.00 Partly Cloudy FEW090 SCT120 70 66.9 90% 30.08 1018.0
14 02:54 Calm 10.00 Fair CLR 71.1 68 90% 30.08 1018.0
14 01:54 Calm 10.00 Fair CLR 72 69.1 84 72 91% 30.08 1018.1
14 00:54 Calm 10.00 Fair CLR 73 69.1 87% 30.09 1018.5
13 23:54 Calm 10.00 Fair CLR 75 69.1 82% 75 30.09 1018.6
13 22:54 Calm 10.00 Partly Cloudy SCT110 78.1 69.1 74% 80 30.09 1018.4
13 21:54 Calm 10.00 A Few Clouds FEW110 79 69.1 72% 82 30.09 1018.5
13 20:54 E 3 10.00 Partly Cloudy SCT085 82 68 63% 85 30.09 1018.4
13 19:54 SE 3 10.00 Mostly Cloudy SCT070 BKN085 84 72 93 84 67% 90 30.08 1018.2
13 18:54 E 7 10.00 Mostly Cloudy BKN070 86 71.1 61% 92 30.06 1017.6
13 17:54 SE 7 10.00 Partly Cloudy FEW070 FEW085 SCT120 88 72 59% 95 30.06 1017.5
13 16:54 E 7 10.00 Overcast OVC065 88 68 52% 92 30.06 1017.6
13 15:54 W 6 10.00 Mostly Cloudy SCT060 BKN080 89.1 66 47% 92 30.07 1017.9
13 14:54 Calm 10.00 Fair CLR 91 63 39% 92 30.08 1018.3
13 13:54 Calm 10.00 Fair CLR 89.1 64 89.1 69.1 43% 90 30.11 1019.0
13 12:54 SE 3 10.00 Fair CLR 86 66.9 53% 89 30.13 1019.9
13 11:54 Calm 10.00 Fair CLR 82.9 66.9 59% 86 30.15 1020.5
13 10:54 W 5 10.00 Fair CLR 81 68 65% 84 30.16 1020.9
13 09:54 Calm 10.00 Fair CLR 78.1 68 71% 80 30.17 1021.1
13 08:54 Calm 10.00 Fair CLR 73 66.9 81% 30.18 1021.5
13 07:54 Calm 9.00 Fair CLR 69.1 66 70 66 90% 30.19 1022.0
13 06:54 Calm 10.00 Overcast OVC005 68 64.9 90% 30.19 1022.0
13 05:54 Calm 7.00 Mostly Cloudy BKN004 66.9 64.9 93% 30.18 1021.5
13 04:54 Calm 10.00 Fair CLR 66.9 64 91% 30.16 1020.9
13 03:54 Calm 10.00 Fair CLR 66.9 64 91% 30.15 1020.5
13 02:54 Calm 10.00 Fair CLR 68 64.9 90% 30.15 1020.5
13 01:54 Calm 10.00 Fair CLR 70 66 80.1 70 87% 30.16 1020.8
13 00:54 E 6 10.00 Fair CLR 71.1 66 84% 30.17 1021.1
12 23:54 Calm 10.00 Fair CLR 73 64.9 76% 30.17 1021.4
12 22:54 E 6 10.00 Fair CLR 73.9 64.9 74% 30.16 1020.9
12 21:54 E 9 G 16 10.00 Fair CLR 77 64.9 66% 79 30.15 1020.7
12 20:54 Vrbl 6 10.00 Fair CLR 78.1 66 67% 80 30.14 1020.3
12 19:54 SE 9 10.00 Fair CLR 80.1 66.9 84.9 80.1 64% 82 30.14 1020.1
12 18:54 E 8 G 17 10.00 Fair CLR 81 66.9 62% 83 30.13 1019.7
12 17:54 S 8 10.00 Fair CLR 82.9 66 57% 85 30.11 1019.1
12 16:54 SE 12 10.00 Partly Cloudy SCT060 84 66.9 57% 87 30.11 1019.3
12 15:54 S 6 10.00 Partly Cloudy FEW048 SCT060 84.9 66 53% 87 30.11 1019.3
12 14:54 S 8 10.00 Mostly Cloudy BKN040 84 66 55% 86 30.12 1019.5
12 13:54 S 7 10.00 A Few Clouds FEW060 84 66.9 84.9 72 57% 87 30.14 1020.3
12 12:54 Calm 10.00 Overcast SCT040 OVC060 82 68 63% 85 30.16 1021.0
12 11:54 SE 5 10.00 Overcast OVC060 80.1 66.9 64% 82 30.16 1021.0
12 10:54 Calm 10.00 Overcast FEW037 OVC060 79 66.9 67% 81 30.16 1020.8
12 09:54 Calm 10.00 Overcast FEW022 BKN030 OVC060 77 69.1 77% 79 30.16 1020.9
12 08:54 Calm 10.00 Partly Cloudy SCT026 75 68 79% 76 30.16 1020.8
12 07:54 Calm 10.00 Partly Cloudy SCT009 72 68 73 69.1 87% 30.15 1020.6
12 06:54 Calm 10.00 Partly Cloudy SCT028 71.1 68 90% 30.13 1020.1
12 05:54 Calm 10.00 Overcast OVC060 70 66.9 90% 30.13 1019.9
12 04:54 Calm 10.00 Overcast OVC060 70 68 93% 30.11 1019.3
12 03:54 Calm 10.00 Overcast OVC060 70 68 93% 30.1 1018.9
12 02:54 Calm 10.00 Overcast OVC060 70 68 93% 30.1 1018.9
12 01:54 Calm 10.00 Mostly Cloudy BKN060 69.1 66.9 78.1 69.1 93% 30.11 1019.2
12 00:54 Calm 10.00 Overcast OVC041 71.1 68 90% 30.11 1019.2
11 23:54 Calm 10.00 Overcast OVC038 71.1 66.9 87% 30.09 1018.7
11 22:54 Calm 7.00 Light Rain OVC030 72 66 82% 30.09 1018.6
11 21:54 N 6 10.00 Overcast OVC029 73.9 68 82% 30.07 1017.8
11 20:54 W 3 10.00 Overcast FEW034 SCT040 OVC060 77 66 69% 79 30.05 1017.1
11 19:54 SW 5 10.00 Overcast SCT040 OVC060 78.1 66 81 78.1 67% 80 30.03 1016.5
11 18:54 SW 12 10.00 Overcast BKN046 OVC060 79 64.9 62% 81 30.01 1015.8
11 17:54 SW 12 10.00 Overcast BKN040 OVC049 79 64.9 62% 81 29.99 1015.3
11 16:54 W 9 10.00 Overcast OVC041 80.1 64.9 60% 82 29.98 1014.7
11 15:54 W 10 10.00 Overcast OVC042 80.1 64.9 60% 82 29.97 1014.3
11 14:54 W 14 G 22 10.00 Overcast OVC044 80.1 64 58% 82 29.96 1014.0
11 13:54 W 12 G 20 10.00 Overcast OVC046 81 64.9 81 73 58% 83 29.95 1013.7
11 12:54 W 13 G 22 10.00 Overcast OVC038 79 64 60% 81 29.94 1013.6
11 11:54 W 15 G 21 10.00 Overcast BKN036 OVC046 77 63 62% 79 29.94 1013.4
11 10:54 W 14 G 22 10.00 Overcast SCT029 OVC034 77 64 64% 79 29.92 1012.8
11 09:54 W 14 G 23 10.00 A Few Clouds FEW040 77 64 64% 79 29.91 1012.4
Date Time (edt) Wind (mph) Vis. (mi.) Weather Sky Cond. Air Dwpt Max. Min. Relative Humidity Wind Chill (°F) Heat Index (°F) altimeter (in) sea level (mb) 1 hr 3 hr 6 hr
6 hour
Temperature (ºF) Pressure Precipitation (in)